Harare Kutsaga, Zimbabwe

12:58 AM CAT on February 13, 2016 (GMT +0200)
Harare International

Weather History for FVHA - March, 2013

Change the Weather History Date:

Saturday, March 23, 2013

  Actual Average Record
Temperature  
Mean Temperature 66 °F -  
Max Temperature 78 °F 78 °F 86 °F (2007)
Min Temperature 55 °F 55 °F 55 °F (2013)
Cooling Degree Days 2    
Growing Degree Days 16 (Base 50)    
Moisture  
Dew Point 56 °F    
Average Humidity 69    
Maximum Humidity 100    
Minimum Humidity 35    
Precipitation  
Precipitation 0.00 in 0.07 in - ()
Sea Level Pressure  
Sea Level Pressure 30.13 in    
Wind  
Wind Speed 6 mph ()    
Max Wind Speed 14 mph    
Max Gust Speed -    
Visibility 13.5 miles    
Events      
Averages and records for this station are not official NWS values.
T = Trace of Precipitation, MM = Missing Value Source: Averaged Metar Reports

Daily Weather History Graph

Daily Weather History Graph

Search for Another Location

Airport or City:

Trip Planner

Search our weather history database for the weather conditions in past years. The results will help you decide how hot, cold, wet, or windy it might be!

Date:

Astronomy

Mar. 23, 2013 Rise Set
Actual Time 5:59 AM CAT 6:03 PM CAT
Civil Twilight 5:38 AM CAT 6:25 PM CAT
Nautical Twilight 5:12 AM CAT 6:50 PM CAT
Astronomical Twilight 4:47 AM CAT 7:15 PM CAT
Moon 3:12 PM CAT (3/23) 2:14 AM CAT (3/23)
Length of Visible Light 12h 47m
Length of Day
12h 03m
Waxing Gibbous, 83% of the Moon is Illuminated
Mar 23
Waxing Gibbous
Mar 27
Full
Apr 3
Last Quarter
Apr 10
New
Apr 18
First Quarter

Hourly Weather History & Observations

Time (CAT) Temp. Dew Point Humidity Pressure Visibility Wind Dir Wind Speed Gust Speed Precip Events Conditions
2:00 AM 60 °F 58 °F 93%  in 19 mi NE 6.9 mph - -   Scattered Clouds
2:00 AM 60.8 °F 59.0 °F 94% 30.12 in - NE 6.9 mph - N/A   Clear
5:00 AM 57.2 °F 55.4 °F 94% 30.12 in - ENE 6.9 mph - N/A   Clear
6:00 AM 55.4 °F 55.4 °F 100% 30.12 in - ENE 8.1 mph - N/A   Clear
7:00 AM 60.8 °F 57.2 °F 88% 30.15 in - ENE 6.9 mph - N/A   Clear
8:00 AM 63 °F 57 °F 74%  in 19 mi NE 13.8 mph - -  
8:00 AM 62.6 °F 57.2 °F 82% 30.15 in - NE 13.8 mph - N/A   Clear
9:00 AM 66.2 °F 57.2 °F 73% 30.18 in - NE 9.2 mph - N/A   Clear
10:00 AM 69.8 °F 57.2 °F 64% 30.18 in - NNE 5.8 mph - N/A   Clear
11:00 AM 73.4 °F 55.4 °F 53% 30.18 in - East 4.6 mph - N/A   Clear
12:00 PM 71.6 °F 55.4 °F 57% 30.15 in 6.2 mi East 4.6 mph - N/A   Scattered Clouds
1:00 PM 75.2 °F 53.6 °F 47% 30.12 in 6.2 mi ENE 5.8 mph - N/A   Scattered Clouds
2:00 PM 77 °F 55 °F 35%  in 19 mi ENE 5.8 mph - -   Partly Cloudy
2:00 PM 77.0 °F 55.4 °F 47% 30.12 in 6.2 mi ENE 5.8 mph - N/A   Scattered Clouds
3:00 PM 77.0 °F 53.6 °F 44% 30.09 in - East 5.8 mph - N/A   Clear
4:00 PM 77.0 °F 51.8 °F 41% 30.09 in - ESE 2.3 mph - N/A   Clear
5:00 PM 75.2 °F 55.4 °F 50% 30.09 in - East 8.1 mph - N/A   Clear
6:00 PM 71.6 °F 57.2 °F 60% 30.09 in - NNE 5.8 mph - N/A   Clear
7:00 PM 66.2 °F 57.2 °F 73% 30.09 in - ENE 8.1 mph - N/A   Clear
8:00 PM 65 °F 57 °F 68%  in 19 mi ENE 6.9 mph - -   Scattered Clouds
8:00 PM 64.4 °F 57.2 °F 77% 30.12 in - ENE 6.9 mph - N/A   Clear
9:00 PM 62.6 °F 57.2 °F 82% 30.12 in - ENE 5.8 mph - N/A   Clear
10:00 PM 62.6 °F 57.2 °F 82% 30.15 in - ENE 6.9 mph - N/A   Clear
11:00 PM 62.6 °F 57.2 °F 82% 30.15 in - ENE 6.9 mph - N/A   Clear